This is the latest recevied weather packets stored in our database for station/object AC5CM. If no packets are shown the sender has not sent any weather packets the latest 10 day(s).
| Time | Temp. | Humidity | Pressure | Rain* | Wind** | Luminosity | Snow |
|---|---|---|---|---|---|---|---|
| 1777824487 | 25.56° C | 35% | 1024.1 hPa | 0 mm | - | - | - |
| 1777823577 | 25.56° C | 37% | 1024.1 hPa | 0 mm | - | - | - |
| 1777822669 | 25° C | 40% | 1024.2 hPa | 0 mm | - | - | - |
| 1777822064 | 25° C | 39% | 1024.3 hPa | 0 mm | - | - | - |
| 1777820853 | 24.44° C | 45% | 1024 hPa | 0 mm | - | - | - |
| 1777820549 | 23.89° C | 45% | 1023.7 hPa | 0 mm | - | - | - |
| 1777818732 | 23.89° C | 53% | 1023.5 hPa | 0 mm | - | - | - |
| 1777818125 | 23.33° C | 55% | 1023.6 hPa | 0 mm | - | - | - |
| 1777817519 | 22.78° C | 61% | 1023.4 hPa | 0 mm | - | - | - |
| 1777817215 | 22.22° C | 63% | 1023.4 hPa | 0 mm | - | - | - |
| 1777815398 | 20.56° C | 82% | 1023.3 hPa | 0 mm | - | - | - |
| 1777815096 | 19.44° C | 90% | 1023.3 hPa | 0 mm | - | - | - |
| 1777814792 | 18.33° C | 94% | 1023.2 hPa | 0 mm | - | - | - |
| 1777814489 | 17.22° C | 99% | 1023.2 hPa | 0 mm | - | - | - |
| 1777814186 | 16.11° C | 99% | 1023.3 hPa | 0 mm | - | - | - |
| 1777813883 | 16.11° C | 99% | 1023.2 hPa | 0 mm | - | - | - |
| 1777811765 | 12.22° C | 99% | 1022.9 hPa | 0 mm | - | - | - |
| 1777811158 | 11.67° C | 98% | 1022.9 hPa | 0 mm | - | - | - |
| 1777810855 | 11.11° C | 98% | 1022.9 hPa | 0 mm | - | - | - |
| 1777810552 | 11.11° C | 98% | 1022.6 hPa | 0 mm | - | - | - |
| 1777809038 | 11.11° C | 98% | 1022.7 hPa | 0 mm | - | - | - |
| 1777806008 | 11.67° C | 98% | 1022.2 hPa | 0 mm | - | - | - |
| 1777802677 | 11.67° C | 97% | 1021.9 hPa | 0 mm | - | - | - |
| 1777802374 | 11.67° C | 97% | 1022 hPa | 0 mm | - | - | - |
| 1777801770 | 11.67° C | 97% | 1022 hPa | 0 mm | - | - | - |
* Rain latest hour (hover to see other rain measurements)
** Current wind speed in m/s (hover to see current wind gust speed)